Year,Month,Day,Hour,Minute,Value (Times are PST for temperature in C)
2009,07,24,00,00,16.40
2009,07,24,00,01,16.40
2009,07,24,00,02,16.40
2009,07,24,00,03,16.40
2009,07,24,00,04,16.40
2009,07,24,00,05,16.40
2009,07,24,00,06,16.40
2009,07,24,00,07,16.40
2009,07,24,00,08,16.40
2009,07,24,00,09,16.40
2009,07,24,00,10,16.40
2009,07,24,00,11,16.40
2009,07,24,00,12,16.40
2009,07,24,00,13,16.40
2009,07,24,00,14,16.40
2009,07,24,00,15,16.40
2009,07,24,00,16,16.40
2009,07,24,00,17,16.40
2009,07,24,00,18,16.40
2009,07,24,00,19,16.40
2009,07,24,00,20,16.40
2009,07,24,00,21,16.40
2009,07,24,00,22,16.40
2009,07,24,00,23,16.40
2009,07,24,00,24,16.40
2009,07,24,00,25,16.30
2009,07,24,00,26,16.30
2009,07,24,00,27,16.30
2009,07,24,00,28,16.30
2009,07,24,00,29,16.30
2009,07,24,00,30,16.30
2009,07,24,00,31,16.30
2009,07,24,00,32,16.30
2009,07,24,00,33,16.30
2009,07,24,00,34,16.30
2009,07,24,00,35,16.30
2009,07,24,00,36,16.30
2009,07,24,00,37,16.30
2009,07,24,00,38,16.30
2009,07,24,00,39,16.20
2009,07,24,00,40,16.20
2009,07,24,00,41,16.20
2009,07,24,00,42,16.20
2009,07,24,00,43,16.20
2009,07,24,00,44,16.20
2009,07,24,00,45,16.10
2009,07,24,00,46,16.10
2009,07,24,00,47,16.10
2009,07,24,00,48,16.10
2009,07,24,00,49,16.10
2009,07,24,00,50,16.00
2009,07,24,00,51,16.00
2009,07,24,00,52,16.00
2009,07,24,00,53,15.90
2009,07,24,00,54,15.90
2009,07,24,00,55,15.90
2009,07,24,00,56,15.90
2009,07,24,00,57,15.80
2009,07,24,00,58,15.80
2009,07,24,00,59,15.80
2009,07,24,01,00,15.80
2009,07,24,01,01,15.80
2009,07,24,01,02,15.70
2009,07,24,01,03,15.70
2009,07,24,01,04,15.70
2009,07,24,01,05,15.70
2009,07,24,01,06,15.70
2009,07,24,01,07,15.70
2009,07,24,01,08,15.60
2009,07,24,01,09,15.60
2009,07,24,01,10,15.60
2009,07,24,01,11,15.60
2009,07,24,01,12,15.50
2009,07,24,01,13,15.50
2009,07,24,01,14,15.50
2009,07,24,01,15,15.50
2009,07,24,01,16,15.40
2009,07,24,01,17,15.40
2009,07,24,01,18,15.40
2009,07,24,01,19,15.40
2009,07,24,01,20,15.30
2009,07,24,01,21,15.30
2009,07,24,01,22,15.30
2009,07,24,01,23,15.30
2009,07,24,01,24,15.20
2009,07,24,01,25,15.20
2009,07,24,01,26,15.20
2009,07,24,01,27,15.10
2009,07,24,01,28,15.10
2009,07,24,01,29,15.10
2009,07,24,01,30,15.00
2009,07,24,01,31,15.00
2009,07,24,01,32,15.00
2009,07,24,01,33,15.00
2009,07,24,01,34,15.00
2009,07,24,01,35,15.00
2009,07,24,01,36,15.00
2009,07,24,01,37,15.00
2009,07,24,01,38,15.00
2009,07,24,01,39,15.00
2009,07,24,01,40,15.00
2009,07,24,01,41,15.00
2009,07,24,01,42,15.00
2009,07,24,01,43,15.00
2009,07,24,01,44,15.00
2009,07,24,01,45,15.00
2009,07,24,01,46,14.90
2009,07,24,01,47,14.90
2009,07,24,01,48,14.90
2009,07,24,01,49,14.80
2009,07,24,01,50,14.80
2009,07,24,01,51,14.80
2009,07,24,01,52,14.80
2009,07,24,01,53,14.80
2009,07,24,01,54,14.70
2009,07,24,01,55,14.70
2009,07,24,01,56,14.70
2009,07,24,01,57,14.70
2009,07,24,01,58,14.70
2009,07,24,01,59,14.60
2009,07,24,02,00,14.60
2009,07,24,02,01,14.60
2009,07,24,02,02,14.60
2009,07,24,02,03,14.60
2009,07,24,02,04,14.50
2009,07,24,02,05,14.50
2009,07,24,02,06,14.50
2009,07,24,02,07,14.40
2009,07,24,02,08,14.40
2009,07,24,02,09,14.40
2009,07,24,02,10,14.40
2009,07,24,02,11,14.40
2009,07,24,02,12,14.40
2009,07,24,02,13,14.30
2009,07,24,02,14,14.30
2009,07,24,02,15,14.30
2009,07,24,02,16,14.30
2009,07,24,02,17,14.30
2009,07,24,02,18,14.30
2009,07,24,02,19,14.30
2009,07,24,02,20,14.30
2009,07,24,02,21,14.30
2009,07,24,02,22,14.30
2009,07,24,02,23,14.30
2009,07,24,02,24,14.20
2009,07,24,02,25,14.20
2009,07,24,02,26,14.20
2009,07,24,02,27,14.20
2009,07,24,02,28,14.20
2009,07,24,02,29,14.20
2009,07,24,02,30,14.20
2009,07,24,02,31,14.10
2009,07,24,02,32,14.10
2009,07,24,02,33,14.10
2009,07,24,02,34,14.10
2009,07,24,02,35,14.10
2009,07,24,02,36,14.10
2009,07,24,02,37,14.00
2009,07,24,02,38,14.00
2009,07,24,02,39,14.00
2009,07,24,02,40,13.90
2009,07,24,02,41,13.90
2009,07,24,02,42,13.90
2009,07,24,02,43,13.90
2009,07,24,02,44,13.90
2009,07,24,02,45,13.90
2009,07,24,02,46,13.80
2009,07,24,02,47,13.80
2009,07,24,02,48,13.80
2009,07,24,02,49,13.80
2009,07,24,02,50,13.80
2009,07,24,02,51,13.80
2009,07,24,02,52,13.80
2009,07,24,02,53,13.80
2009,07,24,02,54,13.80
2009,07,24,02,55,13.70
2009,07,24,02,56,13.70
2009,07,24,02,57,13.70
2009,07,24,02,58,13.70
2009,07,24,02,59,13.70
2009,07,24,03,00,13.70
2009,07,24,03,01,13.70
2009,07,24,03,02,13.70
2009,07,24,03,03,13.70
2009,07,24,03,04,13.60
2009,07,24,03,05,13.60
2009,07,24,03,06,13.60
2009,07,24,03,07,13.60
2009,07,24,03,08,13.60
2009,07,24,03,09,13.60
2009,07,24,03,10,13.60
2009,07,24,03,11,13.60
2009,07,24,03,12,13.60
2009,07,24,03,13,13.60
2009,07,24,03,14,13.60
2009,07,24,03,15,13.50
2009,07,24,03,16,13.60
2009,07,24,03,17,13.50
2009,07,24,03,18,13.50
2009,07,24,03,19,13.50
2009,07,24,03,20,13.50
2009,07,24,03,21,13.50
2009,07,24,03,22,13.40
2009,07,24,03,23,13.40
2009,07,24,03,24,13.40
2009,07,24,03,25,13.40
2009,07,24,03,26,13.40
2009,07,24,03,27,13.40
2009,07,24,03,28,13.40
2009,07,24,03,29,13.40
2009,07,24,03,30,13.30
2009,07,24,03,31,13.30
2009,07,24,03,32,13.30
2009,07,24,03,33,13.30
2009,07,24,03,34,13.30
2009,07,24,03,35,13.30
2009,07,24,03,36,13.30
2009,07,24,03,37,13.30
2009,07,24,03,38,13.30
2009,07,24,03,39,13.30
2009,07,24,03,40,13.30
2009,07,24,03,41,13.30
2009,07,24,03,42,13.30
2009,07,24,03,43,13.20
2009,07,24,03,44,13.20
2009,07,24,03,45,13.20
2009,07,24,03,46,13.20
2009,07,24,03,47,13.20
2009,07,24,03,48,13.20
2009,07,24,03,49,13.20
2009,07,24,03,50,13.20
2009,07,24,03,51,13.20
2009,07,24,03,52,13.20
2009,07,24,03,53,13.20
2009,07,24,03,54,13.20
2009,07,24,03,55,13.20
2009,07,24,03,56,13.20
2009,07,24,03,57,13.20
2009,07,24,03,58,13.20
2009,07,24,03,59,13.10
2009,07,24,04,00,13.10
2009,07,24,04,01,13.10
2009,07,24,04,02,13.10
2009,07,24,04,03,13.10
2009,07,24,04,04,13.10
2009,07,24,04,05,13.10
2009,07,24,04,06,13.10
2009,07,24,04,07,13.10
2009,07,24,04,08,13.10
2009,07,24,04,09,13.10
2009,07,24,04,10,13.10
2009,07,24,04,11,13.00
2009,07,24,04,12,13.00
2009,07,24,04,13,13.00
2009,07,24,04,14,13.00
2009,07,24,04,15,13.00
2009,07,24,04,16,12.90
2009,07,24,04,17,12.90
2009,07,24,04,18,12.90
2009,07,24,04,19,12.90
2009,07,24,04,20,12.90
2009,07,24,04,21,12.90
2009,07,24,04,22,12.90
2009,07,24,04,23,12.90
2009,07,24,04,24,12.90
2009,07,24,04,25,12.80
2009,07,24,04,26,12.80
2009,07,24,04,27,12.80
2009,07,24,04,28,12.80
2009,07,24,04,29,12.80
2009,07,24,04,30,12.90
2009,07,24,04,31,12.90
2009,07,24,04,32,12.90
2009,07,24,04,33,12.80
2009,07,24,04,34,12.80
2009,07,24,04,35,12.80
2009,07,24,04,36,12.80
2009,07,24,04,37,12.80
2009,07,24,04,38,12.80
2009,07,24,04,39,12.80
2009,07,24,04,40,12.80
2009,07,24,04,41,12.80
2009,07,24,04,42,12.80
2009,07,24,04,43,12.80
2009,07,24,04,44,12.80
2009,07,24,04,45,12.80
2009,07,24,04,46,12.80
2009,07,24,04,47,12.80
2009,07,24,04,48,12.80
2009,07,24,04,49,12.80
2009,07,24,04,50,12.80
2009,07,24,04,51,12.80
2009,07,24,04,52,12.80
2009,07,24,04,53,12.80
2009,07,24,04,54,12.80
2009,07,24,04,55,12.80
2009,07,24,04,56,12.80
2009,07,24,04,57,12.80
2009,07,24,04,58,12.80
2009,07,24,04,59,12.80
2009,07,24,05,00,12.80
2009,07,24,05,01,12.80
2009,07,24,05,02,12.80
2009,07,24,05,03,12.80
2009,07,24,05,04,12.80
2009,07,24,05,05,12.80
2009,07,24,05,06,12.80
2009,07,24,05,07,12.70
2009,07,24,05,08,12.70
2009,07,24,05,09,12.70
2009,07,24,05,10,12.70
2009,07,24,05,11,12.70
2009,07,24,05,12,12.70
2009,07,24,05,13,12.70
2009,07,24,05,14,12.70
2009,07,24,05,15,12.70
2009,07,24,05,16,12.70
2009,07,24,05,17,12.70
2009,07,24,05,18,12.70
2009,07,24,05,19,12.70
2009,07,24,05,20,12.70
2009,07,24,05,21,12.70
2009,07,24,05,22,12.70
2009,07,24,05,23,12.70
2009,07,24,05,24,12.70
2009,07,24,05,25,12.70
2009,07,24,05,26,12.70
2009,07,24,05,27,12.70
2009,07,24,05,28,12.70
2009,07,24,05,29,12.70
2009,07,24,05,30,12.70
2009,07,24,05,31,12.70
2009,07,24,05,32,12.70
2009,07,24,05,33,12.70
2009,07,24,05,34,12.70
2009,07,24,05,35,12.70
2009,07,24,05,36,12.70
2009,07,24,05,37,12.70
2009,07,24,05,38,12.70
2009,07,24,05,39,12.70
2009,07,24,05,40,12.70
2009,07,24,05,41,12.70
2009,07,24,05,42,12.70
2009,07,24,05,43,12.70
2009,07,24,05,44,12.70
2009,07,24,05,45,12.70
2009,07,24,05,46,12.70
2009,07,24,05,47,12.70
2009,07,24,05,48,12.70
2009,07,24,05,49,12.70
2009,07,24,05,50,12.70
2009,07,24,05,51,12.70
2009,07,24,05,52,12.70
2009,07,24,05,53,12.70
2009,07,24,05,54,12.70
2009,07,24,05,55,12.70
2009,07,24,05,56,12.70
2009,07,24,05,57,12.70
2009,07,24,05,58,12.70
2009,07,24,05,59,12.70
2009,07,24,06,00,12.70
2009,07,24,06,01,12.70
2009,07,24,06,02,12.70
2009,07,24,06,03,12.70
2009,07,24,06,04,12.70
2009,07,24,06,05,12.70
2009,07,24,06,06,12.70
2009,07,24,06,07,12.70
2009,07,24,06,08,12.70
2009,07,24,06,09,12.70
2009,07,24,06,10,12.70
2009,07,24,06,11,12.70
2009,07,24,06,12,12.70
2009,07,24,06,13,12.70
2009,07,24,06,14,12.70
2009,07,24,06,15,12.70
2009,07,24,06,16,12.70
2009,07,24,06,17,12.70
2009,07,24,06,18,12.70
2009,07,24,06,19,12.70
2009,07,24,06,20,12.70
2009,07,24,06,21,12.70
2009,07,24,06,22,12.70
2009,07,24,06,23,12.70
2009,07,24,06,24,12.70
2009,07,24,06,25,12.70
2009,07,24,06,26,12.70
2009,07,24,06,27,12.80
2009,07,24,06,28,12.80
2009,07,24,06,29,12.80
2009,07,24,06,30,12.80
2009,07,24,06,31,12.80
2009,07,24,06,32,12.80
2009,07,24,06,33,12.80
2009,07,24,06,34,12.90
2009,07,24,06,35,12.90
2009,07,24,06,36,12.90
2009,07,24,06,37,12.90
2009,07,24,06,38,12.90
2009,07,24,06,39,12.90
2009,07,24,06,40,12.90
2009,07,24,06,41,12.90
2009,07,24,06,42,12.90
2009,07,24,06,43,12.90
2009,07,24,06,44,12.90
2009,07,24,06,45,12.90
2009,07,24,06,46,12.90
2009,07,24,06,47,12.90
2009,07,24,06,48,13.00
2009,07,24,06,49,13.00
2009,07,24,06,50,13.00
2009,07,24,06,51,13.00
2009,07,24,06,52,13.00
2009,07,24,06,53,13.00
2009,07,24,06,54,13.00
2009,07,24,06,55,13.00
2009,07,24,06,56,13.00
2009,07,24,06,57,13.00
2009,07,24,06,58,13.00
2009,07,24,06,59,13.00
2009,07,24,07,00,13.10
2009,07,24,07,01,13.10
2009,07,24,07,02,13.10
2009,07,24,07,03,13.10
2009,07,24,07,04,13.10
2009,07,24,07,05,13.10
2009,07,24,07,06,13.10
2009,07,24,07,07,13.10
2009,07,24,07,08,13.10
2009,07,24,07,09,13.10
2009,07,24,07,10,13.20
2009,07,24,07,11,13.20
2009,07,24,07,12,13.20
2009,07,24,07,13,13.20
2009,07,24,07,14,13.20
2009,07,24,07,15,13.20
2009,07,24,07,16,13.20
2009,07,24,07,17,13.30
2009,07,24,07,18,13.30
2009,07,24,07,19,13.30
2009,07,24,07,20,13.30
2009,07,24,07,21,13.30
2009,07,24,07,22,13.30
2009,07,24,07,23,13.40
2009,07,24,07,24,13.40
2009,07,24,07,25,13.40
2009,07,24,07,26,13.40
2009,07,24,07,27,13.50
2009,07,24,07,28,13.50
2009,07,24,07,29,13.60
2009,07,24,07,30,13.60
2009,07,24,07,31,13.60
2009,07,24,07,32,13.60
2009,07,24,07,33,13.70
2009,07,24,07,34,13.70
2009,07,24,07,35,13.70
2009,07,24,07,36,13.70
2009,07,24,07,37,13.80
2009,07,24,07,38,13.80
2009,07,24,07,39,13.80
2009,07,24,07,40,13.80
2009,07,24,07,41,13.80
2009,07,24,07,42,13.90
2009,07,24,07,43,13.90
2009,07,24,07,44,13.90
2009,07,24,07,45,13.90
2009,07,24,07,46,14.00
2009,07,24,07,47,14.00
2009,07,24,07,48,14.00
2009,07,24,07,49,14.10
2009,07,24,07,50,14.10
2009,07,24,07,51,14.10
2009,07,24,07,52,14.20
2009,07,24,07,53,14.20
2009,07,24,07,54,14.20
2009,07,24,07,55,14.30
2009,07,24,07,56,14.30
2009,07,24,07,57,14.30
2009,07,24,07,58,14.40
2009,07,24,07,59,14.40
2009,07,24,08,00,14.40
2009,07,24,08,01,14.50
2009,07,24,08,02,14.50
2009,07,24,08,03,14.60
2009,07,24,08,04,14.60
2009,07,24,08,05,14.60
2009,07,24,08,06,14.70
2009,07,24,08,07,14.70
2009,07,24,08,08,14.80
2009,07,24,08,09,14.90
2009,07,24,08,10,14.90
2009,07,24,08,11,15.00
2009,07,24,08,12,15.00
2009,07,24,08,13,15.00
2009,07,24,08,14,15.00
2009,07,24,08,15,15.00
2009,07,24,08,16,15.00
2009,07,24,08,17,15.00
2009,07,24,08,18,15.10
2009,07,24,08,19,15.10
2009,07,24,08,20,15.20
2009,07,24,08,21,15.20
2009,07,24,08,22,15.30
2009,07,24,08,23,15.30
2009,07,24,08,24,15.30
2009,07,24,08,25,15.30
2009,07,24,08,26,15.30
2009,07,24,08,27,15.40
2009,07,24,08,28,15.40
2009,07,24,08,29,15.40
2009,07,24,08,30,15.40
2009,07,24,08,31,15.40
2009,07,24,08,32,15.50
2009,07,24,08,33,15.50
2009,07,24,08,34,15.50
2009,07,24,08,35,15.60
2009,07,24,08,36,15.60
2009,07,24,08,37,15.60
2009,07,24,08,38,15.60
2009,07,24,08,39,15.70
2009,07,24,08,40,15.70
2009,07,24,08,41,15.70
2009,07,24,08,42,15.70
2009,07,24,08,43,15.70
2009,07,24,08,44,15.80
2009,07,24,08,45,15.80
2009,07,24,08,46,15.80
2009,07,24,08,47,15.80
2009,07,24,08,48,15.90
2009,07,24,08,49,15.90
2009,07,24,08,50,15.90
2009,07,24,08,51,15.90
2009,07,24,08,52,16.00
2009,07,24,08,53,16.00
2009,07,24,08,54,16.10
2009,07,24,08,55,16.10
2009,07,24,08,56,16.10
2009,07,24,08,57,16.20
2009,07,24,08,58,16.20
2009,07,24,08,59,16.20
2009,07,24,09,00,16.30
2009,07,24,09,01,16.30
2009,07,24,09,02,16.30
2009,07,24,09,03,16.40
2009,07,24,09,04,16.40
2009,07,24,09,05,16.40
2009,07,24,09,06,16.50
2009,07,24,09,07,16.50
2009,07,24,09,08,16.60
2009,07,24,09,09,16.60
2009,07,24,09,10,16.70
2009,07,24,09,11,16.70
2009,07,24,09,12,16.70
2009,07,24,09,13,16.80
2009,07,24,09,14,16.80
2009,07,24,09,15,16.90
2009,07,24,09,16,16.90
2009,07,24,09,17,17.00
2009,07,24,09,18,17.00
2009,07,24,09,19,17.10
2009,07,24,09,20,17.20
2009,07,24,09,21,17.30
2009,07,24,09,22,17.40
2009,07,24,09,23,17.50
2009,07,24,09,24,17.50
2009,07,24,09,25,17.60
2009,07,24,09,26,17.70
2009,07,24,09,27,17.80
2009,07,24,09,28,17.80
2009,07,24,09,29,17.90
2009,07,24,09,30,18.00
2009,07,24,09,31,18.00
2009,07,24,09,32,18.10
2009,07,24,09,33,18.10
2009,07,24,09,34,18.20
2009,07,24,09,35,18.20
2009,07,24,09,36,18.30
2009,07,24,09,37,18.30
2009,07,24,09,38,18.40
2009,07,24,09,39,18.40
2009,07,24,09,40,18.50
2009,07,24,09,41,18.50
2009,07,24,09,42,18.60
2009,07,24,09,43,18.60
2009,07,24,09,44,18.60
2009,07,24,09,45,18.70
2009,07,24,09,46,18.70
2009,07,24,09,47,18.70
2009,07,24,09,48,18.80
2009,07,24,09,49,18.80
2009,07,24,09,50,18.80
2009,07,24,09,51,18.80
2009,07,24,09,52,18.90
2009,07,24,09,53,18.90
2009,07,24,09,54,18.90
2009,07,24,09,55,18.90
2009,07,24,09,56,18.90
2009,07,24,09,57,19.00
2009,07,24,09,58,19.00
2009,07,24,09,59,19.00
2009,07,24,10,00,19.10
2009,07,24,10,01,19.10
2009,07,24,10,02,19.10
2009,07,24,10,03,19.10
2009,07,24,10,04,19.10
2009,07,24,10,05,19.20
2009,07,24,10,06,19.20
2009,07,24,10,07,19.20
2009,07,24,10,08,19.20
2009,07,24,10,09,19.30
2009,07,24,10,10,19.30
2009,07,24,10,11,19.30
2009,07,24,10,12,19.30
2009,07,24,10,13,19.30
2009,07,24,10,14,19.40
2009,07,24,10,15,19.40
2009,07,24,10,16,19.40
2009,07,24,10,17,19.50
2009,07,24,10,18,19.50
2009,07,24,10,19,19.60
2009,07,24,10,20,19.60
2009,07,24,10,21,19.60
2009,07,24,10,22,19.70
2009,07,24,10,23,19.70
2009,07,24,10,24,19.70
2009,07,24,10,25,19.70
2009,07,24,10,26,19.80
2009,07,24,10,27,19.80
2009,07,24,10,28,19.80
2009,07,24,10,29,19.90
2009,07,24,10,30,19.90
2009,07,24,10,31,19.90
2009,07,24,10,32,20.00
2009,07,24,10,33,20.00
2009,07,24,10,34,20.10
2009,07,24,10,35,20.10
2009,07,24,10,36,20.10
2009,07,24,10,37,20.10
2009,07,24,10,38,20.10
2009,07,24,10,39,20.10
2009,07,24,10,40,20.10
2009,07,24,10,41,20.10
2009,07,24,10,42,20.20
2009,07,24,10,43,20.20
2009,07,24,10,44,20.20
2009,07,24,10,45,20.20
2009,07,24,10,46,20.30
2009,07,24,10,47,20.30
2009,07,24,10,48,20.30
2009,07,24,10,49,20.30
2009,07,24,10,50,20.30
2009,07,24,10,51,20.40
2009,07,24,10,52,20.40
2009,07,24,10,53,20.40
2009,07,24,10,54,20.40
2009,07,24,10,55,20.50
2009,07,24,10,56,20.50
2009,07,24,10,57,20.50
2009,07,24,10,58,20.50
2009,07,24,10,59,20.60
2009,07,24,11,00,20.60
2009,07,24,11,01,20.60
2009,07,24,11,02,20.60
2009,07,24,11,03,20.60
2009,07,24,11,04,20.60
2009,07,24,11,05,20.60
2009,07,24,11,06,20.70
2009,07,24,11,07,20.70
2009,07,24,11,08,20.70
2009,07,24,11,09,20.70
2009,07,24,11,10,20.70
2009,07,24,11,11,20.70
2009,07,24,11,12,20.70
2009,07,24,11,13,20.70
2009,07,24,11,14,20.70
2009,07,24,11,15,20.80
2009,07,24,11,16,20.80
2009,07,24,11,17,20.80
2009,07,24,11,18,20.80
2009,07,24,11,19,20.80
2009,07,24,11,20,20.80
2009,07,24,11,21,20.80
2009,07,24,11,22,20.90
2009,07,24,11,23,20.90
2009,07,24,11,24,20.90
2009,07,24,11,25,20.90
2009,07,24,11,26,21.00
2009,07,24,11,27,21.00
2009,07,24,11,28,21.10
2009,07,24,11,29,21.10
2009,07,24,11,30,21.10
2009,07,24,11,31,21.20
2009,07,24,11,32,21.20
2009,07,24,11,33,21.30
2009,07,24,11,34,21.30
2009,07,24,11,35,21.40
2009,07,24,11,36,21.40
2009,07,24,11,37,21.50
2009,07,24,11,38,21.60
2009,07,24,11,39,21.70
2009,07,24,11,40,21.80
2009,07,24,11,41,21.80
2009,07,24,11,42,21.90
2009,07,24,11,43,21.90
2009,07,24,11,44,22.00
2009,07,24,11,45,22.00
2009,07,24,11,46,22.10
2009,07,24,11,47,22.10
2009,07,24,11,48,22.10
2009,07,24,11,49,22.20
2009,07,24,11,50,22.20
2009,07,24,11,51,22.20
2009,07,24,11,52,22.20
2009,07,24,11,53,22.20
2009,07,24,11,54,22.20
2009,07,24,11,55,22.30
2009,07,24,11,56,22.30
2009,07,24,11,57,22.40
2009,07,24,11,58,22.40
2009,07,24,11,59,22.40
2009,07,24,12,00,22.30
2009,07,24,12,01,22.20
2009,07,24,12,02,22.20
2009,07,24,12,03,22.20
2009,07,24,12,04,22.20
2009,07,24,12,05,22.20
2009,07,24,12,06,22.20
2009,07,24,12,07,22.20
2009,07,24,12,08,22.30
2009,07,24,12,09,22.30
2009,07,24,12,10,22.30
2009,07,24,12,11,22.30
2009,07,24,12,12,22.40
2009,07,24,12,13,22.50
2009,07,24,12,14,22.60
2009,07,24,12,15,22.60
2009,07,24,12,16,22.60
2009,07,24,12,17,22.70
2009,07,24,12,18,22.80
2009,07,24,12,19,22.90
2009,07,24,12,20,23.00
2009,07,24,12,21,23.10
2009,07,24,12,22,23.20
2009,07,24,12,23,23.20
2009,07,24,12,24,23.30
2009,07,24,12,25,23.30
2009,07,24,12,26,23.40
2009,07,24,12,27,23.50
2009,07,24,12,28,23.60
2009,07,24,12,29,23.70
2009,07,24,12,30,23.80
2009,07,24,12,31,23.80
2009,07,24,12,32,23.80
2009,07,24,12,33,23.70
2009,07,24,12,34,23.70
2009,07,24,12,35,23.60
2009,07,24,12,36,23.60
2009,07,24,12,37,23.60
2009,07,24,12,38,23.60
2009,07,24,12,39,23.60
2009,07,24,12,40,23.70
2009,07,24,12,41,23.80
2009,07,24,12,42,23.80
2009,07,24,12,43,23.90
2009,07,24,12,44,24.00
2009,07,24,12,45,24.10
2009,07,24,12,46,24.10
2009,07,24,12,47,24.20
2009,07,24,12,48,24.20
2009,07,24,12,49,24.20
2009,07,24,12,50,24.20
2009,07,24,12,51,24.20
2009,07,24,12,52,24.20
2009,07,24,12,53,24.30
2009,07,24,12,54,24.20
2009,07,24,12,55,24.20
2009,07,24,12,56,24.20
2009,07,24,12,57,24.20
2009,07,24,12,58,24.20
2009,07,24,12,59,24.20
2009,07,24,13,00,24.20
2009,07,24,13,01,24.20
2009,07,24,13,02,24.20
2009,07,24,13,03,24.20
2009,07,24,13,04,24.20
2009,07,24,13,05,24.20
2009,07,24,13,06,24.30
2009,07,24,13,07,24.30
2009,07,24,13,08,24.20
2009,07,24,13,09,24.20
2009,07,24,13,10,24.20
2009,07,24,13,11,24.20
2009,07,24,13,12,24.30
2009,07,24,13,13,24.30
2009,07,24,13,14,24.30
2009,07,24,13,15,24.40
2009,07,24,13,16,24.50
2009,07,24,13,17,24.60
2009,07,24,13,18,24.60
2009,07,24,13,19,24.70
2009,07,24,13,20,24.70
2009,07,24,13,21,24.70
2009,07,24,13,22,24.80
2009,07,24,13,23,24.80
2009,07,24,13,24,24.90
2009,07,24,13,25,24.90
2009,07,24,13,26,24.90
2009,07,24,13,27,24.80
2009,07,24,13,28,24.80
2009,07,24,13,29,24.80
2009,07,24,13,30,24.80
2009,07,24,13,31,24.80
2009,07,24,13,32,24.80
2009,07,24,13,33,24.80
2009,07,24,13,34,24.80
2009,07,24,13,35,24.80
2009,07,24,13,36,24.80
2009,07,24,13,37,24.80
2009,07,24,13,38,24.80
2009,07,24,13,39,24.80
2009,07,24,13,40,24.80
2009,07,24,13,41,24.90
2009,07,24,13,42,24.90
2009,07,24,13,43,24.90
2009,07,24,13,44,25.00
2009,07,24,13,45,25.00
2009,07,24,13,46,25.00
2009,07,24,13,47,25.10
2009,07,24,13,48,25.10
2009,07,24,13,49,25.10
2009,07,24,13,50,25.20
2009,07,24,13,51,25.20
2009,07,24,13,52,25.20
2009,07,24,13,53,25.30
2009,07,24,13,54,25.30
2009,07,24,13,55,25.20
2009,07,24,13,56,25.20
2009,07,24,13,57,25.20
2009,07,24,13,58,25.30
2009,07,24,13,59,25.40
2009,07,24,14,00,25.40
2009,07,24,14,01,25.30
2009,07,24,14,02,25.30
2009,07,24,14,03,25.30
2009,07,24,14,04,25.30
2009,07,24,14,05,25.30
2009,07,24,14,06,25.30
2009,07,24,14,07,25.40
2009,07,24,14,08,25.40
2009,07,24,14,09,25.50
2009,07,24,14,10,25.60
2009,07,24,14,11,25.60
2009,07,24,14,12,25.60
2009,07,24,14,13,25.60
2009,07,24,14,14,25.50
2009,07,24,14,15,25.50
2009,07,24,14,16,25.40
2009,07,24,14,17,25.40
2009,07,24,14,18,25.40
2009,07,24,14,19,25.50
2009,07,24,14,20,25.60
2009,07,24,14,21,25.60
2009,07,24,14,22,25.60
2009,07,24,14,23,25.60
2009,07,24,14,24,25.70
2009,07,24,14,25,25.70
2009,07,24,14,26,25.70
2009,07,24,14,27,25.80
2009,07,24,14,28,25.70
2009,07,24,14,29,25.70
2009,07,24,14,30,25.70
2009,07,24,14,31,25.70
2009,07,24,14,32,25.70
2009,07,24,14,33,25.70
2009,07,24,14,34,25.70
2009,07,24,14,35,25.60
2009,07,24,14,36,25.60
2009,07,24,14,37,25.60
2009,07,24,14,38,25.70
2009,07,24,14,39,25.70
2009,07,24,14,40,25.70
2009,07,24,14,41,25.70
2009,07,24,14,42,25.70
2009,07,24,14,43,25.70
2009,07,24,14,44,25.80
2009,07,24,14,45,25.80
2009,07,24,14,46,25.80
2009,07,24,14,47,25.80
2009,07,24,14,48,25.80
2009,07,24,14,49,25.80
2009,07,24,14,50,25.80
2009,07,24,14,51,25.80
2009,07,24,14,52,25.70
2009,07,24,14,53,25.70
2009,07,24,14,54,25.70
2009,07,24,14,55,25.80
2009,07,24,14,56,25.90
2009,07,24,14,57,25.90
2009,07,24,14,58,25.90
2009,07,24,14,59,25.90
2009,07,24,15,00,26.00
2009,07,24,15,01,26.10
2009,07,24,15,02,26.20
2009,07,24,15,03,26.30
2009,07,24,15,04,26.30
2009,07,24,15,05,26.40
2009,07,24,15,06,26.50
2009,07,24,15,07,26.50
2009,07,24,15,08,26.50
2009,07,24,15,09,26.40
2009,07,24,15,10,26.40
2009,07,24,15,11,26.40
2009,07,24,15,12,26.40
2009,07,24,15,13,26.40
2009,07,24,15,14,26.40
2009,07,24,15,15,26.50
2009,07,24,15,16,26.60
2009,07,24,15,17,26.70
2009,07,24,15,18,26.80
2009,07,24,15,19,26.90
2009,07,24,15,20,27.00
2009,07,24,15,21,27.10
2009,07,24,15,22,27.20
2009,07,24,15,23,27.20
2009,07,24,15,24,27.20
2009,07,24,15,25,27.20
2009,07,24,15,26,27.20
2009,07,24,15,27,27.20
2009,07,24,15,28,27.20
2009,07,24,15,29,27.30
2009,07,24,15,30,27.30
2009,07,24,15,31,27.40
2009,07,24,15,32,27.50
2009,07,24,15,33,27.60
2009,07,24,15,34,27.70
2009,07,24,15,35,27.80
2009,07,24,15,36,27.90
2009,07,24,15,37,28.00
2009,07,24,15,38,28.00
2009,07,24,15,39,28.10
2009,07,24,15,40,28.00
2009,07,24,15,41,28.10
2009,07,24,15,42,28.10
2009,07,24,15,43,28.10
2009,07,24,15,44,28.10
2009,07,24,15,45,28.20
2009,07,24,15,46,28.30
2009,07,24,15,47,28.30
2009,07,24,15,48,28.40
2009,07,24,15,49,28.40
2009,07,24,15,50,28.40
2009,07,24,15,51,28.40
2009,07,24,15,52,28.40
2009,07,24,15,53,28.40
2009,07,24,15,54,28.40
2009,07,24,15,55,28.40
2009,07,24,15,56,28.20
2009,07,24,15,57,28.00
2009,07,24,15,58,27.90
2009,07,24,15,59,27.80
2009,07,24,16,00,27.80
2009,07,24,16,01,27.80
2009,07,24,16,02,27.80
2009,07,24,16,03,27.80
2009,07,24,16,04,27.80
2009,07,24,16,05,27.70
2009,07,24,16,06,27.70
2009,07,24,16,07,27.70
2009,07,24,16,08,27.70
2009,07,24,16,09,27.60
2009,07,24,16,10,27.60
2009,07,24,16,11,27.60
2009,07,24,16,12,27.60
2009,07,24,16,13,27.50
2009,07,24,16,14,27.50
2009,07,24,16,15,27.40
2009,07,24,16,16,27.40
2009,07,24,16,17,27.40
2009,07,24,16,18,27.40
2009,07,24,16,19,27.40
2009,07,24,16,20,27.40
2009,07,24,16,21,27.50
2009,07,24,16,22,27.50
2009,07,24,16,23,27.60
2009,07,24,16,24,27.60
2009,07,24,16,25,27.60
2009,07,24,16,26,27.60
2009,07,24,16,27,27.70
2009,07,24,16,28,27.70
2009,07,24,16,29,27.70
2009,07,24,16,30,27.70
2009,07,24,16,31,27.70
2009,07,24,16,32,27.80
2009,07,24,16,33,27.80
2009,07,24,16,34,27.90
2009,07,24,16,35,27.90
2009,07,24,16,36,27.90
2009,07,24,16,37,27.90
2009,07,24,16,38,27.90
2009,07,24,16,39,28.00
2009,07,24,16,40,28.00
2009,07,24,16,41,28.00
2009,07,24,16,42,27.90
2009,07,24,16,43,27.90
2009,07,24,16,44,27.90
2009,07,24,16,45,27.90
2009,07,24,16,46,27.80
2009,07,24,16,47,27.90
2009,07,24,16,48,27.90
2009,07,24,16,49,27.90
2009,07,24,16,50,27.90
2009,07,24,16,51,27.90
2009,07,24,16,52,27.90
2009,07,24,16,53,28.00
2009,07,24,16,54,28.00
2009,07,24,16,55,28.00
2009,07,24,16,56,28.00
2009,07,24,16,57,28.00
2009,07,24,16,58,28.00
2009,07,24,16,59,28.00
2009,07,24,17,00,28.00
2009,07,24,17,01,28.10
2009,07,24,17,02,28.10
2009,07,24,17,03,28.10
2009,07,24,17,04,28.20
2009,07,24,17,05,28.20
2009,07,24,17,06,28.30
2009,07,24,17,07,28.20
2009,07,24,17,08,28.20
2009,07,24,17,09,28.20
2009,07,24,17,10,28.20
2009,07,24,17,11,28.10
2009,07,24,17,12,28.10
2009,07,24,17,13,28.10
2009,07,24,17,14,28.10
2009,07,24,17,15,28.10
2009,07,24,17,16,28.10
2009,07,24,17,17,28.10
2009,07,24,17,18,28.10
2009,07,24,17,19,28.10